Location: Kaseke
(18.0171°S, 31.0526°E)
Time: 12:23:01
(UTC+00:00)

Meteor 1-21 - Pass Details

Date: 14 July 2020
Orbit: 845 x 887 km, 81.2° (Epoch: 07 August)

Event Time Altitude Azimuth Distance (km) Brightness Sun altitude
Rises 02:48:29 0° 342° (NNW) 3,473 7.4 -23.1°
Reaches altitude 10° 02:51:00 10° 336° (NNW) 2,538 6.6 -22.5°
Maximum altitude 02:56:32 47° 263° (W) 1,149 4.4 -21.2°
Drops below altitude 10° 03:02:06 10° 189° (S) 2,541 6.4 -20.0°
Sets 03:04:38 0° 183° (S) 3,478 7.2 -19.4°
